Regional Weather Roundup
Issued by NWS

Home | Current Version | Previous Version | Graphics & Text | Print | Product List | Glossary On
Versions: 1 2 3 4 5 6 7 8 9 10 11 12 13 14 15 16 17 18 19 20 21 22 23 24 25 26 27 28 29 30 31 32 33 34 35 36 37 38 39 40 41 42 43 44 45 46 47 48 49 50
000
ASUS45 KSLC 230210
RWRUT

UTAH REGIONAL WEATHER ROUNDUP
NATIONAL WEATHER SERVICE SALT LAKE CITY UT
800 PM MDT FRI SEP 22 2017

UTZ001>011-023>025-230300-

NORTHERN UTAH

CITY           SKY/WX    TMP DP  RH WIND       PRES   REMARKS
BRIGHAM CITY   PTCLDY    49  36  61 CALM      29.97S
HILL AFB       PTCLDY    45  36  71 E3        29.97R
LOGAN          MOCLDY    49  38  65 W3        29.96R
OGDEN          PTCLDY    47  38  71 SE3       29.96S
SALT LAKE CITY PTCLDY    49  41  74 N7        29.96R
TOOELE VALLEY  PTCLDY    45  37  76 NW5       29.98R
WENDOVER       CLEAR     44  38  79 W8        29.99R
HEBER CITY     MOCLDY    41  36  81 CALM      29.94S
WEST JORDAN    PTCLDY    45  44  94 N6        29.97R

$$

UTZ011>015-024>027-230300-

CENTRAL/NORTHEAST UTAH

CITY           SKY/WX    TMP DP  RH WIND       PRES   REMARKS
PROVO AIRPORT  MOCLDY    48  41  76 NW5       29.95R
MOAB/CANYONLAN PTCLDY    70  24  17 W13       29.70R
DELTA          PTCLDY    46  36  66 MISG      29.94R
PRICE          MOCLDY    51  30  44 NW15G25   29.85R
RICHFIELD      CLEAR     46  39  76 N5        29.94R
ROOSEVELT      CLEAR     54  30  40 W16G24    29.86R
VERNAL         MOCLDY    58  36  43 SW14      29.82R

$$

UTZ013>016-019>022-027-230300-

SOUTHERN UTAH

CITY           SKY/WX    TMP DP  RH WIND       PRES   REMARKS
BRYCE CANYON   CLEAR     44  21  40 W8        29.93R
CEDAR CITY     CLEAR     49  37  63 N8        29.87R
MILFORD        CLEAR     48  40  73 N13       29.90R
ST GEORGE      MOCLDY    68  22  17 W6        29.78R
HANKSVILLE     CLEAR     68  23  18 W8        29.74R
KANAB          CLEAR     59  19  21 NW14      29.87R
BLANDING         N/A     65  27  23 SW10G24   29.90S

$$

REGIONAL REPORTS     COLORADO/ARIZONA

CITY           SKY/WX    TMP DP  RH WIND       PRES   REMARKS
CRAIG, CO      CLOUDY    52  32  46 SE9       29.87R
GRAND JUNCTION CLEAR     70  29  21 S7        29.75S
RIFLE, CO      CLOUDY    62  42  47 N3        29.82R
MONTROSE, CO   CLOUDY    64  41  42 SW6       29.85R
CORTEZ, CO     PTCLDY    64  30  27 S10       29.86R
PAGE, AZ       NOT AVBL
GRAND CANYON   CLEAR     55  17  22 SW10      29.90S
KINGMAN, AZ    CLEAR     63  17  17 SW13      29.79S
FLAGSTAFF, AZ  CLEAR     52  33  48 SW14      29.94S

$$

REGIONAL REPORTS    NEVADA/IDAHO/WYOMING

CITY           SKY/WX    TMP DP  RH WIND       PRES   REMARKS
LAS VEGAS, NV  PTCLDY    73  25  16 N6        29.74S
ELY, NY        CLEAR     35  34  96 N13       29.98S WCI  26
ELKO, NV       LGT RAIN  39  33  79 SW6       30.00R WCI  35
POCATELLO, ID  CLOUDY    44  36  73 S8        29.98R
BURLEY, ID     PTCLDY    45  34  65 W6        29.96R
FORT BRIDGER,  CLOUDY    35  35 100 NW3       30.01S
EVANSTON, WY   CLOUDY    36  34  92 S3        29.98R
ROCK SPRINGS,  LGT RAIN  38  36  92 W22G31    29.99R WCI  27
KEMMERER, WY     N/A     36  34  93 E9        29.98R WCI  29

$$



USA.gov is the U.S. government's official web portal to all federal, state and local government web resources and services.